LINCON Weather Reports


Display with metric or nautical units.
time (UTC)temp
F
wind
direction
speed
MPH
gust
MPH
rain 1hr
in
rain 24hr
in
rain mn
in
humidity
%
barometer
mb
20260506095628 56 0 0.0 0.0 0.00 0.01 0.00 85 1015.6
20260506095511 56 0 0.0 0.0 0.00 0.01 0.00 85 1015.6
20260506095012 56 0 0.0 0.0 0.00 0.01 0.00 85 1015.5
20260506094512 56 0 0.0 0.0 0.00 0.01 0.00 86 1015.4
20260506094012 56 0 0.0 0.0 0.00 0.01 0.00 86 1015.4
20260506093511 56 0 0.0 0.0 0.00 0.01 0.00 86 1015.4
20260506093011 56 0 0.0 0.0 0.00 0.01 0.00 86 1015.3
20260506092511 56 0 0.0 0.0 0.00 0.01 0.00 85 1015.3
20260506092011 56 0 0.0 0.0 0.00 0.01 0.00 85 1015.3
20260506091512 56 0 0.0 0.0 0.00 0.01 0.00 85 1015.3
20260506091011 56 0 0.0 0.0 0.00 0.01 0.00 86 1015.2
20260506090511 56 0 0.0 0.0 0.00 0.01 0.00 86 1015.2
20260506090011 56 0 0.0 0.0 0.00 0.01 0.00 86 1015.2
20260506085511 56 0 0.0 0.0 0.00 0.01 0.00 86 1015.2
20260506085103 56 0 0.0 0.0 0.00 0.01 0.00 86 1015.1
20260506085011 56 0 0.0 0.0 0.00 0.01 0.00 86 1015.1
20260506084512 56 0 0.0 0.0 0.00 0.01 0.00 86 1015.1
20260506084011 56 0 0.0 0.0 0.00 0.01 0.00 86 1015.0
20260506083511 56 0 0.0 0.0 0.00 0.01 0.00 86 1015.1
20260506083011 56 0 0.0 0.0 0.00 0.01 0.00 86 1015.1
20260506082514 56 0 0.0 0.0 0.00 0.01 0.00 86 1015.0
20260506082011 56 0 0.0 0.0 0.00 0.01 0.00 86 1015.0
20260506081511 56 0 0.0 0.0 0.00 0.01 0.00 86 1015.0
20260506081013 56 0 0.0 0.0 0.00 0.01 0.00 86 1015.0
20260506080512 56 0 0.0 0.0 0.00 0.01 0.00 86 1014.9
20260506073514 56 0 0.0 0.0 0.00 0.02 0.00 85 1014.6
20260506073012 56 0 0.0 0.0 0.00 0.02 0.00 85 1014.5
20260506072514 56 0 0.0 0.0 0.00 0.02 0.00 85 1014.4
20260506072011 56 0 0.0 0.0 0.00 0.02 0.00 85 1014.4
20260506071511 56 0 0.0 0.0 0.00 0.02 0.00 85 1014.3
20260506071011 56 0 0.0 0.0 0.00 0.02 0.00 85 1014.3
20260506070511 56 0 0.0 0.0 0.00 0.02 0.00 85 1014.2
20260506062511 56 0 0.0 0.0 0.00 0.02 0.00 84 1014.1
20260506062011 56 0 0.0 0.0 0.00 0.02 0.00 84 1014.1
20260506061511 56 0 0.0 0.0 0.00 0.02 0.00 84 1014.1
20260506061012 56 0 0.0 0.0 0.00 0.02 0.00 84 1014.1
20260506060511 57 0 0.0 0.0 0.00 0.02 0.00 84 1014.0
20260506051011 57 0 0.0 0.0 0.00 0.02 0.00 84 1014.1
20260506050511 57 0 0.0 0.0 0.00 0.02 0.00 84 1014.1
20260506045012 57 0 0.0 0.0 0.00 0.02 0.00 83 1014.0
20260506044511 57 0 0.0 0.0 0.00 0.02 0.00 83 1013.9
20260506044011 57 0 0.0 0.0 0.00 0.02 0.00 83 1013.8
20260506043514 57 0 0.0 0.0 0.00 0.02 0.00 83 1013.8
20260506043011 57 0 0.0 0.0 0.00 0.02 0.00 83 1013.7
20260506042511 57 0 0.0 0.0 0.00 0.02 0.00 83 1013.7
20260506042012 57 0 0.0 0.0 0.00 0.02 0.00 83 1013.7
20260506041511 58 0 0.0 0.0 0.00 0.02 0.00 83 1013.7
20260506041014 58 0 0.0 0.0 0.00 0.02 0.00 83 1013.6
20260506040511 58 0 0.0 0.0 0.00 0.02 0.00 83 1013.5
20260506040015 58 0 0.0 0.0 0.00 0.02 0.00 83 1013.5
20260506035011 58 0 0.0 0.0 0.00 0.02 0.00 83 1013.4
20260506034511 58 0 0.0 0.0 0.00 0.02 0.00 83 1013.3
20260506034011 58 0 0.0 0.0 0.00 0.02 0.00 82 1013.2
20260506033511 58 0 0.0 0.0 0.00 0.02 0.00 82 1013.1
20260506033011 58 0 0.0 0.0 0.00 0.02 0.00 83 1013.1
20260506032511 58 0 0.0 0.0 0.00 0.02 0.00 83 1013.0
20260506032011 58 0 0.0 8.0 0.00 0.02 0.00 83 1013.0
20260506031511 58 341 0.0 8.0 0.00 0.02 0.00 83 1013.0
20260506031014 58 345 5.0 8.0 0.00 0.02 0.00 82 1012.9
20260506030511 59 344 0.0 9.0 0.00 0.02 0.00 82 1012.9
20260506025511 59 331 0.0 9.0 0.00 0.02 0.00 82 1012.9
20260506025011 59 348 6.0 8.0 0.00 0.02 0.00 82 1012.9
20260506024514 59 0 2.0 2.0 0.00 0.02 0.00 81 1012.8
20260506024011 59 0 0.0 0.0 0.00 0.02 0.00 81 1012.9
20260506023011 59 0 0.0 5.0 0.00 0.02 0.00 80 1012.8
20260506022511 59 0 0.0 5.0 0.00 0.02 0.00 80 1012.8
20260506022011 60 352 0.0 5.0 0.00 0.02 0.00 80 1012.8
20260506021511 60 330 2.0 5.0 0.00 0.02 0.00 80 1012.8
20260506021011 60 0 0.0 0.0 0.00 0.02 0.00 80 1012.8
20260506020511 60 0 0.0 0.0 0.00 0.02 0.00 80 1012.8
20260506020013 60 0 0.0 6.0 0.00 0.02 0.00 80 1012.8
20260506015511 60 347 0.0 6.0 0.00 0.02 0.00 79 1012.9
20260506015012 60 345 5.0 6.0 0.00 0.02 0.00 79 1012.9
20260506014512 60 0 0.0 0.0 0.00 0.02 0.00 79 1012.9
20260506014011 61 0 0.0 0.0 0.00 0.02 0.00 78 1012.8
20260506013511 61 0 0.0 0.0 0.00 0.02 0.00 78 1012.8
20260506013011 61 0 0.0 0.0 0.00 0.02 0.00 78 1012.8
20260506012511 61 0 0.0 0.0 0.00 0.02 0.00 78 1012.9
20260506012011 61 0 0.0 0.0 0.00 0.02 0.00 78 1012.9
20260506011511 61 0 0.0 0.0 0.00 0.02 0.00 78 1012.8
20260506011011 61 0 0.0 0.0 0.00 0.02 0.00 78 1012.8
20260506010609 62 0 0.0 0.0 0.00 0.02 0.00 78 1012.8
20260506010511 62 0 0.0 0.0 0.00 0.02 0.00 78 1012.8
20260506010011 62 0 0.0 7.0 0.00 0.02 0.00 78 1013.0
20260506005511 62 0 0.0 7.0 0.00 0.02 0.00 77 1012.8
20260506005011 62 0 0.0 7.0 0.00 0.02 0.00 77 1012.8
20260506004511 62 344 0.0 9.0 0.00 0.02 0.00 77 1012.8
20260506004011 62 348 1.0 9.0 0.00 0.02 0.00 77 1012.9
20260506003511 62 348 7.0 9.0 0.00 0.02 0.00 77 1012.9
20260506003011 62 0 0.0 6.0 0.00 0.02 0.00 77 1012.9
20260506002511 62 320 0.0 6.0 0.00 0.02 0.00 76 1012.8
20260506002012 62 337 2.0 9.0 0.00 0.02 0.00 76 1012.8
20260506001511 63 351 0.0 9.0 0.00 0.02 0.00 76 1012.9
20260506001011 63 348 6.0 9.0 0.00 0.02 0.00 76 1012.8
20260506000511 63 350 1.0 9.0 0.00 0.02 0.00 76 1012.8
20260506000012 63 351 2.0 9.0 0.00 0.02 0.00 75 1012.8
20260505235511 63 350 0.0 9.0 0.00 0.02 0.00 75 1012.9
20260505235011 63 0 0.0 7.0 0.00 0.02 0.00 75 1012.9
20260505234511 63 343 0.0 7.0 0.00 0.02 0.00 75 1012.9
20260505234011 63 333 0.0 6.0 0.00 0.02 0.00 75 1013.0
20260505233511 63 338 4.0 5.0 0.00 0.02 0.00 75 1013.0
20260505233011 63 0 0.0 9.0 0.00 0.02 0.02 74 1013.0
20260505232511 64 350 0.0 9.0 0.00 0.02 0.02 75 1013.0
20260505232011 64 352 2.0 9.0 0.00 0.02 0.02 74 1013.0
20260505231511 64 348 6.0 8.0 0.00 0.02 0.02 74 1013.1
20260505231011 64 357 2.0 8.0 0.00 0.02 0.02 75 1013.1
20260505230511 64 351 4.0 8.0 0.00 0.02 0.02 74 1013.1
20260505230012 64 348 0.0 9.0 0.00 0.02 0.02 74 1013.2
20260505225512 64 348 5.0 9.0 0.00 0.02 0.02 74 1013.1
20260505225012 64 351 4.0 9.0 0.00 0.02 0.02 73 1013.3
20260505224511 64 355 4.0 7.0 0.00 0.02 0.02 74 1013.2
20260505224011 64 4 6.0 7.0 0.00 0.02 0.02 73 1013.2
20260505223512 65 0 0.0 7.0 0.00 0.02 0.02 74 1013.2
20260505223011 65 347 0.0 7.0 0.00 0.02 0.02 74 1013.2
20260505222511 65 343 5.0 7.0 0.00 0.02 0.02 74 1013.2
20260505222011 65 341 5.0 6.0 0.00 0.02 0.02 74 1013.3
20260505221511 64 347 0.0 6.0 0.00 0.02 0.02 75 1013.2
20260505221011 64 326 0.0 7.0 0.00 0.02 0.02 75 1013.2
20260505220511 64 336 0.0 7.0 0.00 0.02 0.02 75 1013.2
20260505220014 64 323 0.0 7.0 0.00 0.02 0.02 75 1013.3
20260505215511 64 326 4.0 6.0 0.00 0.02 0.02 75 1013.3
20260505215104 64 322 0.0 5.0 0.00 0.02 0.02 75 1013.4
20260505215011 64 322 0.0 5.0 0.00 0.02 0.02 75 1013.4
20260505214511 64 0 0.0 4.0 0.00 0.02 0.02 76 1013.4
20260505214011 63 334 0.0 4.0 0.00 0.02 0.02 76 1013.4
20260505213511 63 331 0.0 6.0 0.00 0.02 0.02 76 1013.4
20260505213013 63 336 0.0 6.0 0.00 0.02 0.02 76 1013.4
20260505212511 63 334 0.0 6.0 0.00 0.02 0.02 77 1013.5
20260505212011 63 0 3.0 3.0 0.00 0.02 0.02 77 1013.5
20260505211511 63 0 0.0 0.0 0.00 0.02 0.02 76 1013.5
20260505211011 63 0 0.0 2.0 0.00 0.02 0.02 77 1013.4
20260505210511 63 0 0.0 2.0 0.00 0.02 0.02 77 1013.5
20260505210011 62 212 0.0 2.0 0.00 0.02 0.02 77 1013.5
20260505205510 62 0 0.0 0.0 0.00 0.02 0.02 78 1013.5
20260505205011 62 0 0.0 0.0 0.00 0.02 0.02 78 1013.5
20260505204513 62 0 0.0 0.0 0.00 0.02 0.02 78 1013.5
20260505204011 62 0 0.0 0.0 0.00 0.02 0.02 79 1013.5
20260505203511 62 0 0.0 0.0 0.00 0.02 0.02 79 1013.6
20260505203011 61 0 0.0 0.0 0.00 0.02 0.02 79 1013.6
20260505202511 61 0 0.0 0.0 0.00 0.02 0.02 78 1013.5
20260505202011 61 0 0.0 0.0 0.00 0.02 0.02 79 1013.5
20260505201510 61 0 0.0 0.0 0.00 0.02 0.02 80 1013.5
20260505201011 61 0 0.0 0.0 0.00 0.02 0.02 80 1013.6
20260505200011 60 0 0.0 0.0 0.00 0.02 0.02 81 1013.6
20260505195511 60 0 0.0 0.0 0.00 0.02 0.02 80 1013.6
20260505195011 60 0 0.0 0.0 0.00 0.02 0.02 80 1013.6
20260505194511 60 0 0.0 0.0 0.00 0.02 0.02 81 1013.6
20260505194011 60 0 0.0 0.0 0.00 0.02 0.02 81 1013.6
20260505193511 60 0 0.0 0.0 0.00 0.02 0.02 82 1013.6
20260505193011 60 0 0.0 0.0 0.00 0.02 0.02 82 1013.6
20260505192511 59 0 0.0 0.0 0.00 0.02 0.02 83 1013.7
20260505192103 59 0 0.0 0.0 0.00 0.02 0.02 83 1013.6
20260505192011 59 0 0.0 0.0 0.00 0.02 0.02 83 1013.6
20260505191511 59 0 0.0 0.0 0.00 0.02 0.02 83 1013.5
20260505191011 59 0 0.0 0.0 0.00 0.02 0.02 85 1013.6
20260505190511 59 0 0.0 0.0 0.00 0.02 0.02 85 1013.5
20260505190013 58 0 0.0 0.0 0.00 0.02 0.02 84 1013.5
20260505185511 58 0 0.0 0.0 0.00 0.02 0.02 84 1013.5
20260505185011 58 0 0.0 5.0 0.00 0.02 0.02 86 1013.4
20260505184511 58 212 0.0 5.0 0.00 0.02 0.02 85 1013.4
20260505184011 58 198 0.0 5.0 0.00 0.02 0.02 86 1013.4
20260505183511 58 0 0.0 0.0 0.00 0.02 0.02 87 1013.3
20260505183011 58 0 0.0 0.0 0.00 0.02 0.02 87 1013.3
20260505182512 58 0 0.0 0.0 0.00 0.02 0.02 88 1013.2
20260505182011 58 0 0.0 0.0 0.00 0.02 0.02 88 1013.2
20260505181510 57 0 0.0 0.0 0.00 0.02 0.02 89 1013.2
20260505181011 57 0 0.0 3.0 0.00 0.02 0.02 89 1013.1
20260505180511 57 0 0.0 3.0 0.00 0.02 0.02 89 1013.2
20260505180011 57 0 0.0 3.0 0.00 0.02 0.02 89 1013.1
20260505175510 57 218 0.0 7.0 0.00 0.02 0.02 89 1013.2
20260505175011 57 191 0.0 7.0 0.00 0.02 0.02 89 1013.1
20260505174511 57 273 0.0 7.0 0.00 0.02 0.02 89 1013.2
20260505174011 57 0 0.0 0.0 0.00 0.02 0.02 89 1013.1
20260505173510 57 0 0.0 0.0 0.00 0.02 0.02 89 1013.1
20260505173013 57 0 0.0 0.0 0.00 0.02 0.02 90 1013.0
20260505172511 57 0 0.0 0.0 0.00 0.02 0.02 90 1012.9
20260505172012 57 0 0.0 0.0 0.00 0.02 0.02 91 1012.9
20260505171510 57 0 0.0 0.0 0.00 0.02 0.02 91 1012.8
20260505171011 57 0 0.0 0.0 0.00 0.02 0.02 92 1012.7
20260505170510 57 0 0.0 0.0 0.00 0.02 0.02 92 1012.7
20260505170011 57 0 0.0 0.0 0.00 0.02 0.02 93 1012.7
20260505165510 57 0 0.0 0.0 0.00 0.02 0.02 93 1012.7
20260505165012 57 0 0.0 0.0 0.00 0.02 0.02 93 1012.7
20260505164511 57 0 0.0 0.0 0.00 0.02 0.02 94 1012.7
20260505164011 57 0 0.0 0.0 0.00 0.02 0.02 94 1012.7
20260505163510 57 0 0.0 0.0 0.00 0.02 0.02 94 1012.6
20260505163011 57 0 0.0 0.0 0.00 0.02 0.02 94 1012.6
20260505162510 57 0 0.0 0.0 0.00 0.02 0.02 94 1012.5
20260505162010 57 0 0.0 0.0 0.00 0.02 0.02 95 1012.5
20260505161512 57 0 0.0 0.0 0.00 0.02 0.02 95 1012.4
20260505161011 57 0 0.0 0.0 0.00 0.02 0.02 95 1012.4
20260505160510 56 0 0.0 0.0 0.00 0.02 0.02 95 1012.4
20260505153010 56 0 0.0 0.0 0.00 0.02 0.02 97 1012.3
20260505152510 56 0 0.0 0.0 0.00 0.02 0.02 97 1012.4
20260505152010 56 0 0.0 0.0 0.00 0.02 0.02 97 1012.3
20260505151510 56 0 0.0 0.0 0.00 0.02 0.02 97 1012.3
20260505151010 55 0 0.0 0.0 0.00 0.02 0.02 97 1012.3
20260505150510 55 0 0.0 0.0 0.00 0.02 0.02 97 1012.3
20260505140510 54 0 0.0 0.0 0.00 0.02 0.02 97 1012.0
20260505125010 54 0 0.0 0.0 0.00 0.02 0.02 98 1011.3
20260505124010 54 0 0.0 0.0 0.00 0.02 0.02 98 1011.3
20260505123511 54 0 0.0 0.0 0.00 0.02 0.02 98 1011.2
20260505123011 54 0 0.0 0.0 0.00 0.02 0.02 98 1011.3
20260505122511 54 0 0.0 0.0 0.00 0.02 0.02 98 1011.2
20260505122011 54 0 0.0 0.0 0.00 0.02 0.02 98 1011.3
20260505121510 54 0 0.0 0.0 0.00 0.02 0.02 98 1011.3
20260505121011 54 0 0.0 0.0 0.00 0.02 0.02 98 1011.2
20260505120510 54 0 0.0 0.0 0.00 0.02 0.02 98 1011.2
20260505120010 54 0 0.0 0.0 0.00 0.02 0.02 98 1011.2
20260505115510 54 0 0.0 0.0 0.01 0.02 0.02 97 1011.2
20260505115010 54 0 0.0 0.0 0.01 0.02 0.02 97 1011.2
20260505114010 54 0 0.0 0.0 0.01 0.02 0.02 97 1011.2
20260505113510 54 0 0.0 0.0 0.01 0.02 0.02 97 1011.2
20260505113010 54 0 0.0 0.0 0.01 0.02 0.02 97 1011.2
20260505112510 54 0 0.0 0.0 0.01 0.02 0.02 97 1011.1
20260505112010 54 0 0.0 0.0 0.01 0.02 0.02 97 1011.2
20260505111510 54 0 0.0 0.0 0.01 0.02 0.02 97 1011.1
20260505111010 54 0 0.0 0.0 0.01 0.02 0.02 97 1011.1
20260505110510 54 0 0.0 0.0 0.01 0.02 0.02 97 1011.1
20260505102010 54 0 0.0 0.0 0.00 0.01 0.01 97 1011.1
20260505101510 54 0 0.0 0.0 0.00 0.01 0.01 97 1011.1
20260505101011 54 0 0.0 0.0 0.00 0.01 0.01 97 1011.1
20260505100510 54 0 0.0 0.0 0.00 0.01 0.01 97 1011.1